shijiazhuang , China , ASIA

  • Sunday
    May 28

    Sunny  Cloudy

    95 °F  72 °F

    North  North

    3~4L    

  • Monday
    May 29

    Cloudy  Cloudy

    88 °F  68 °F

    North  North

    3~4L    

  • Tuesday
    May 30

    Overcast  Overcast

    84 °F  68 °F

    North  North

    3~4L    

  • Wednesday
    May 31

    Sunny  Sunny

    90 °F  70 °F

    South  North

        

  • Thursday
    June 1

    Sunny  Sunny

    93 °F  72 °F

    North  North

    3~4L    

  • Friday
    June 2

    Sunny  Cloudy

    86 °F  72 °F

    South  North

    3~4L    

  • Saturday
    June 3

    Cloudy  Cloudy

    82 °F  73 °F

    North  North

    3~4L    

Date   Weather Temperature Humidity Total_rain Visibility Wind
11:00 Sunny 88°F 50.5% 0mm 999.9km Northeast  0.8m/s
14:00 Sunny 95°F 38.2% 0mm 999.9km Northeast  3.3m/s
17:00 Sunny 92°F 54% 0mm 999.9km Northeast  3.7m/s
20:00 Sunny 80°F 73.2% 0mm 999.9km Northeast  3.1m/s
23:00 Cloudy 80°F 78.7% 0mm 999.9km Northeast  1.8m/s
02:00 Cloudy 78°F 73.4% 0mm 999.9km Northeast  2.5m/s
05:00 Cloudy 73°F 68.2% 0mm 999.9km Northeast  2.6m/s
08:00 Cloudy 72°F 70.1% 0mm 999.9km Northeast  2.1m/s
11:00 Cloudy 80°F 53.9% 0mm 999.9km Northeast  2.1m/s
14:00 Cloudy 87°F 58.7% 0mm 999.9km Southeast  3.0m/s
17:00 Cloudy 87°F 63.3% 0mm 999.9km Northeast  3.7m/s
20:00 Cloudy 83°F 64% 0mm 999.9km Northeast  3.8m/s
23:00 Cloudy 74°F 73.6% 0mm 999.9km Northeast  3.2m/s
02:00 Cloudy 70°F 76.9% 0mm 999.9km Northeast  2.5m/s
05:00 Cloudy 68°F 72.7% 0mm 999.9km Northeast  2.1m/s
08:00 Cloudy 71°F 68.8% 0mm 999.9km Northeast  2.2m/s
11:00 Overcast 76°F 43% 0mm 999.9km Northeast  1.9m/s
14:00 Overcast 84°F 50.4% 0mm 999.9km Southeast  2.7m/s
17:00 Overcast 81°F 59.7% 0mm 999.9km East  4.1m/s
20:00 Overcast 78°F 62.2% 0mm 999.9km Northeast  3.7m/s
23:00 Overcast 72°F 77% 0mm 999.9km Northeast  2.9m/s
02:00 Overcast 69°F 79.6% 0mm 999.9km Northeast  2.2m/s
05:00 Overcast 68°F 77.5% 0mm 999.9km Northwest  1.7m/s
08:00 Overcast 74°F 66.3% 0mm 999.9km Northwest  0.6m/s
11:00 Sunny 80°F 36.2% 0mm 999.9km Southeast  0.4m/s
14:00 Sunny 89°F 47.4% 0mm 999.9km Southwest  1.0m/s
17:00 Sunny 84°F 56.3% 0mm 999.9km Southeast  1.2m/s
20:00 Sunny 81°F 65.6% 0mm 999.9km Southeast  1.9m/s
23:00 Sunny 78°F 73.5% 0mm 999.9km Northeast  2.2m/s
02:00 Sunny 74°F 71.2% 0mm 999.9km Southwest  0.9m/s
05:00 Sunny 70°F 63% 0mm 999.9km Northwest  2.5m/s
08:00 Sunny 85°F 55.8% 0mm 999.9km Northwest  1.7m/s
11:00 Sunny 92°F 35.7% 0mm 999.9km Northeast  4.0m/s
14:00 Sunny 93°F 37.9% 0mm 999.9km Northeast  4.1m/s
17:00 Sunny 91°F 44.2% 0mm 999.9km Northeast  4.4m/s
20:00 Sunny 87°F 47.8% 0mm 999.9km Northeast  3.9m/s
23:00 Sunny 76°F 56.7% 0mm 999.9km Southeast  3.0m/s
02:00 Sunny 74°F 71.3% 0mm 999.9km Northeast  3.4m/s
05:00 Sunny 72°F 64.6% 0mm 999.9km Northeast  1.2m/s
08:00 Sunny 77°F 62.3% 0mm 999.9km Northeast  2.5m/s
11:00 Sunny 85°F 46.2% 0mm 999.9km Northeast  3.5m/s
14:00 Sunny 86°F 43.7% 0mm 999.9km Northeast  3.4m/s
17:00 Sunny 83°F 41.3% 0mm 999.9km Southeast  3.9m/s
20:00 Sunny 81°F 51% 0mm 999.9km Southeast  2.9m/s
23:00 Cloudy 75°F 56.2% 0mm 999.9km Northeast  3.6m/s
02:00 Cloudy 75°F 58.5% 0mm 999.9km Southeast  1.2m/s
05:00 Cloudy 72°F 62.8% 0mm 999.9km Northeast  3.8m/s
08:00 Cloudy 81°F 48.1% 0mm 999.9km Southeast  1.0m/s
11:00 Cloudy 75°F 27.3% 0mm 999.9km Northeast  2.1m/s
14:00 Cloudy 82°F 32.1% 0mm 999.9km Southeast  4.0m/s
17:00 Cloudy 79°F 41.3% 0mm 999.9km Southeast  2.2m/s
20:00 Cloudy 77°F 41.3% 0mm 999.9km Southeast  2.6m/s
23:00 Cloudy 74°F 64.1% 0mm 999.9km Southwest  2.6m/s
02:00 Cloudy 74°F 62.4% 0mm 999.9km Southwest  3.0m/s
05:00 Cloudy 74°F 54.6% 0mm 999.9km Southwest  3.3m/s